This demonstration page uses our WeatherBlox Daily Observations layout. Learn more.

Left ArrowRight Arrow

38.20091, -84.87328

Hourly Observations for August 20, 2021

Temp ( °F °C ) Dew Point ( °F °C ) Humidity (%) Winds ( mph kmh ) Pressure ( in mb ) Visibility ( mi km ) Precip ( " mm )
12:53 am 00:53 Clear 70 21.1 69 20.6 97 97 Calm 30.01 1016 10 16 0.00 0.00
1:53 am 01:53 Clear 69 20.6 68 20 96 96 N 3 6 30.01 1016 10 16 0.00 0.00
2:13 am 02:13 Mostly Clear with Mist and Fog 68 20 68 20 100 100 Calm 30.01 1016 3 4 0.00 0.00
2:27 am 02:27 Clear 68 20 67 19.4 96 96 Calm 30.00 1016 9 14 0.00 0.00
2:53 am 02:53 Clear with Mist and Fog 68 20 67 19.4 96 96 Calm 29.99 1016 4 6 0.00 0.00
3:53 am 03:53 Clear 68 20 66 18.9 93 93 Calm 29.98 1015 10 16 0.00 0.00
4:17 am 04:17 Mostly Clear with Mist and Fog 68 20 67 19.4 96 96 Calm 29.99 1016 2 3 0.00 0.00
4:20 am 04:20 Mostly Cloudy with Mist and Fog 68 20 67 19.4 96 96 Calm 29.99 1016 1 1 0.00 0.00
4:31 am 04:31 Mostly Cloudy with Fog 67 19.4 67 19.4 100 100 Calm 29.98 1015 0 0 0.00 0.00
4:53 am 04:53 Mostly Cloudy with Fog 68 20 67 19.4 96 96 Calm 29.98 1015 0 0 0.00 0.00
5:19 am 05:19 Mostly Cloudy with Fog 67 19.4 66 18.9 97 97 Calm 29.98 1015 1 1 0.00 0.00
5:31 am 05:31 Mostly Cloudy with Fog 67 19.4 66 18.9 97 97 Calm 29.99 1016 0 0 0.00 0.00
5:53 am 05:53 Mostly Cloudy with Fog 67 19.4 66 18.9 97 97 Calm 29.98 1015 0 0 0.00 0.00
6:17 am 06:17 Mostly Cloudy with Fog 66 18.9 65 18.3 96 96 Calm 29.99 1016 1 1 0.00 0.00
6:43 am 06:43 Mostly Cloudy with Fog 67 19.4 67 19.4 100 100 Calm 29.99 1016 0 0 0.00 0.00
6:51 am 06:51 Mostly Cloudy with Fog 68 20 66 19 94 94 Calm 29.99 1016 1 1 0.00 0.00
6:53 am 06:53 Mostly Cloudy with Fog 67 19.4 67 19.4 100 100 Calm 29.99 1016 1 1 0.00 0.00
7:01 am 07:01 Mostly Cloudy with Fog 67 19.4 66 18.9 97 97 Calm 29.99 1016 0 0 0.00 0.00
7:16 am 07:16 Mostly Cloudy with Fog 67 19.4 67 19.4 100 100 Calm 30.00 1016 N/A 0.00 0.00
7:53 am 07:53 Mostly Cloudy with Fog 69 20.6 69 20.6 100 100 ENE 3 6 30.00 1016 N/A 0.00 0.00
8:49 am 08:49 Mostly Cloudy with Fog 70 21 70 21 100 100 Calm 30.01 1016 0 0 0.00 0.00
8:53 am 08:53 Mostly Cloudy with Fog 71 21.7 70 21.1 96 96 Calm 30.01 1016 0 0 0.00 0.00
9:00 am 09:00 Cloudy with Mist and Fog 71 21.7 71 21.7 100 100 Calm 30.01 1016 1 2 0.00 0.00
9:09 am 09:09 Cloudy with Mist and Fog 72 22.2 71 21.7 97 97 Calm 30.00 1016 3 4 0.00 0.00
9:16 am 09:16 Mostly Cloudy with Mist and Fog 72 22.2 71 21.7 97 97 Calm 30.00 1016 5 8 0.00 0.00
9:33 am 09:33 Partly Cloudy 74 23.3 72 22.2 94 94 E 3 6 30.00 1016 10 16 0.00 0.00
9:53 am 09:53 Sunny 77 25 72 22.2 85 85 E 3 6 30.01 1016 10 16 0.00 0.00
10:53 am 10:53 Partly Cloudy 79 26.1 71 21.7 77 77 VRB 3 6 30.01 1016 10 16 0.00 0.00
11:53 am 11:53 Mostly Sunny 84 28.9 69 20.6 61 61 VRB 3 6 30.01 1016 10 16 0.00 0.00
12:53 pm 12:53 Mostly Sunny 85 29.4 67 19.4 55 55 ESE 8 13 29.99 1016 10 16 0.00 0.00
1:53 pm 13:53 Mostly Sunny 85 29.4 67 19.4 55 55 E 7 11 29.98 1015 10 16 0.00 0.00
2:53 pm 14:53 Sunny 85 29.4 68 20 57 57 SE 5 7 29.96 1015 10 16 0.00 0.00
3:53 pm 15:53 Mostly Cloudy 87 30.6 65 18.3 48 48 Calm 29.93 1014 10 16 0.00 0.00
4:53 pm 16:53 Partly Cloudy 86 30 65 18.3 49 49 Calm 29.92 1013 10 16 0.00 0.00
5:53 pm 17:53 Mostly Sunny 86 30 66 18.9 51 51 Calm 29.91 1013 10 16 0.00 0.00
6:53 pm 18:53 Sunny 85 29.4 67 19.4 55 55 Calm 29.90 1012 10 16 0.00 0.00
7:53 pm 19:53 Sunny 84 28.9 68 20 59 59 Calm 29.89 1012 10 16 0.00 0.00
8:53 pm 20:53 Clear 76 24.4 70 21.1 82 82 Calm 29.90 1013 10 16 0.00 0.00
9:53 pm 21:53 Clear 73 22.8 69 20.6 87 87 Calm 29.91 1013 10 16 0.00 0.00
10:53 pm 22:53 Clear 71 21.7 69 20.6 94 94 Calm 29.92 1013 10 16 0.00 0.00
11:53 pm 23:53 Clear 71 21.7 69 20.6 94 94 Calm 29.91 1013 8 13 0.00 0.00

Powered by AerisWeather